K0LFT Weather Reports


time (UTC)temp
F
wind
direction
speed
knots
gust
knots
rain 1hr
in
rain 24hr
in
rain mn
in
humidity
%
barometer
mb
20260906164331 73 111 3.5 6.1 0.00 0.00 0.00 94 1016.5
20260906163827 73 126 2.6 4.3 0.00 0.00 0.00 94 1016.5
20260906163323 73 76 1.7 6.1 0.00 0.00 0.00 94 1016.6
20260906162820 73 130 2.6 3.5 0.00 0.00 0.00 94 1016.5
20260906162319 73 116 1.7 8.7 0.00 0.00 0.00 94 1016.5
20260906161814 73 119 3.5 7.8 0.00 0.00 0.00 94 1016.6
20260906161314 73 92 1.7 2.6 0.00 0.00 0.00 94 1016.6
20260906160813 73 139 4.3 5.2 0.00 0.00 0.00 94 1016.5
20260906160307 73 25 3.5 3.5 0.00 0.00 0.00 94 1016.4
20260906155805 73 85 3.5 4.3 0.00 0.00 0.00 95 1016.6
20260906155259 73 108 1.7 3.5 0.00 0.00 0.00 95 1016.6
20260906154755 72 78 2.6 3.5 0.00 0.00 0.00 95 1016.6
20260906154244 72 80 0.0 5.2 0.00 0.00 0.00 96 1016.6
20260906153742 72 103 1.7 4.3 0.00 0.00 0.00 97 1016.7
20260906153238 72 150 1.7 5.2 0.00 0.00 0.00 97 1016.7
20260906152733 72 187 1.7 3.5 0.00 0.00 0.00 97 1016.8
20260906152233 71 121 3.5 4.3 0.00 0.00 0.00 98 1016.9
20260906151732 71 148 2.6 4.3 0.00 0.00 0.00 98 1017.0
20260906151228 71 110 0.0 3.5 0.00 0.00 0.00 98 1016.8
20260906150723 71 168 2.6 3.5 0.00 0.00 0.00 98 1016.6
20260906150219 71 137 3.5 3.5 0.00 0.00 0.00 99 1016.9
20260906145718 71 144 1.7 4.3 0.00 0.00 0.00 99 1017.0
20260906145217 71 77 1.7 3.5 0.00 0.00 0.00 99 1016.8
20260906144712 71 22 0.9 2.6 0.00 0.00 0.00 99 1016.8
20260906144207 71 134 1.7 3.5 0.00 0.00 0.00 99 1016.7
20260906143706 71 126 1.7 2.6 0.00 0.00 0.00 99 1016.8
20260906143203 71 168 2.6 3.5 0.00 0.00 0.00 99 1016.6
20260906142657 70 150 2.6 4.3 0.00 0.00 0.00 99 1016.6
20260906142153 70 166 0.9 4.3 0.00 0.00 0.00 99 1016.5
20260906141651 70 164 3.5 7.0 0.00 0.00 0.00 99 1016.7
20260906141146 70 117 1.7 2.6 0.00 0.00 0.00 99 1016.5
20260906140645 70 283 0.9 3.5 0.00 0.00 0.00 99 1016.6
20260906140141 70 144 3.5 3.5 0.00 0.00 0.00 99 1016.6
20260906135637 70 44 2.6 5.2 0.00 0.00 0.00 99 1016.4
20260906135134 70 107 1.7 2.6 0.00 0.00 0.00 99 1016.5
20260906134629 70 119 3.5 7.0 0.00 0.00 0.00 99 1016.5
20260906134124 70 132 0.0 3.5 0.00 0.00 0.00 99 1016.5
20260906133620 70 70 3.5 5.2 0.00 0.00 0.00 99 1016.7
20260906133115 70 89 0.0 1.7 0.00 0.00 0.00 99 1016.7
20260906132610 70 142 5.2 5.2 0.00 0.00 0.00 99 1016.6
20260906132105 69 147 2.6 3.5 0.00 0.00 0.00 99 1016.5
20260906131601 69 127 2.6 3.5 0.00 0.00 0.00 99 1016.4
20260906131056 69 117 4.3 6.1 0.00 0.00 0.00 99 1016.2
20260906130550 69 138 1.7 5.2 0.00 0.00 0.00 99 1016.3
20260906130045 69 94 2.6 5.2 0.00 0.00 0.00 99 1016.1
20260906125542 69 170 0.9 4.3 0.00 0.00 0.00 99 1016.1
20260906125037 69 70 3.5 4.3 0.00 0.00 0.00 99 1016.1
20260906124533 69 99 2.6 7.0 0.00 0.00 0.00 99 1016.0
20260906124027 69 128 3.5 6.1 0.00 0.00 0.00 99 1016.0
20260906123526 69 118 2.6 3.5 0.00 0.00 0.00 99 1016.1
20260906123021 69 141 4.3 5.2 0.00 0.00 0.00 99 1016.0
20260906122515 69 198 1.7 5.2 0.00 0.00 0.00 99 1015.7
20260906122012 69 120 2.6 4.3 0.00 0.00 0.00 99 1015.7
20260906121508 69 79 3.5 4.3 0.00 0.00 0.00 99 1015.7
20260906121004 69 108 1.7 2.6 0.00 0.00 0.00 99 1015.6
20260906120458 69 78 0.9 2.6 0.00 0.00 0.00 99 1015.5
20260906115955 69 212 1.7 3.5 0.00 0.00 0.00 99 1015.5
20260906115450 69 94 0.9 3.5 0.00 0.00 0.00 99 1015.5
20260906114949 69 107 0.9 2.6 0.00 0.00 0.00 99 1015.2
20260906114444 68 103 1.7 1.7 0.00 0.00 0.00 99 1015.4
20260906113940 68 103 2.6 3.5 0.00 0.00 0.00 99 1015.3
20260906113439 68 50 0.0 2.6 0.00 0.00 0.00 99 1015.3
20260906112934 68 124 0.9 2.6 0.00 0.00 0.00 99 1015.0
20260906112430 68 87 0.9 1.7 0.00 0.00 0.00 99 1015.2
20260906111925 68 98 0.0 2.6 0.00 0.00 0.00 99 1015.3
20260906111425 68 171 0.0 2.6 0.00 0.00 0.00 99 1014.9
20260906110920 68 121 0.9 2.6 0.00 0.00 0.00 99 1015.0
20260906110415 68 147 0.0 2.6 0.00 0.00 0.00 99 1015.0
20260906105914 68 119 1.7 1.7 0.00 0.00 0.00 99 1015.2
20260906105410 69 89 0.0 3.5 0.00 0.00 0.00 99 1015.1
20260906104906 69 161 0.9 1.7 0.00 0.00 0.00 99 1015.2
20260906104404 69 269 0.0 2.6 0.00 0.00 0.00 99 1015.1
20260906103903 69 209 0.0 4.3 0.00 0.00 0.00 99 1014.9
20260906103401 69 99 1.7 2.6 0.00 0.00 0.00 99 1015.2
20260906102858 69 93 0.0 2.6 0.00 0.00 0.00 99 1015.1
20260906102357 69 29 0.0 2.6 0.00 0.00 0.00 99 1015.1
20260906101851 69 73 0.0 2.6 0.00 0.00 0.00 99 1015.2
20260906101347 69 157 0.9 1.7 0.00 0.00 0.00 99 1015.0
20260906100842 69 85 0.0 2.6 0.00 0.00 0.00 99 1015.0
20260906100341 69 134 0.0 2.6 0.00 0.00 0.00 99 1015.1
20260906095837 69 98 1.7 3.5 0.00 0.00 0.00 99 1015.2
20260906095332 69 46 1.7 3.5 0.00 0.00 0.00 99 1015.4
20260906094831 70 104 1.7 2.6 0.00 0.00 0.00 99 1015.3
20260906094326 70 82 1.7 2.6 0.00 0.00 0.00 99 1015.5
20260906093818 69 51 0.0 1.7 0.00 0.00 0.00 99 1015.4
20260906093313 70 62 0.0 2.6 0.00 0.00 0.00 99 1015.1
20260906092807 70 53 0.0 1.7 0.00 0.00 0.00 99 1015.3
20260906092301 70 19 0.9 1.7 0.00 0.00 0.00 99 1015.2
20260906091757 70 64 0.0 1.7 0.00 0.00 0.00 99 1014.8
20260906091253 70 59 0.0 1.7 0.00 0.00 0.00 99 1015.0
20260906090750 70 76 0.0 1.7 0.00 0.00 0.00 99 1014.8
20260906090248 70 31 0.0 1.7 0.00 0.00 0.00 99 1014.9
20260906085748 70 53 0.0 1.7 0.00 0.00 0.00 99 1014.7
20260906085247 70 16 0.0 0.9 0.00 0.00 0.00 99 1014.9
20260906084742 70 119 0.0 0.0 0.00 0.00 0.00 99 1014.7
20260906084242 70 119 0.0 0.0 0.00 0.00 0.00 99 1014.8
20260906083737 70 119 0.0 0.9 0.00 0.00 0.00 99 1014.7
20260906083232 70 37 0.0 1.7 0.00 0.00 0.00 99 1014.4
20260906082727 70 57 0.9 1.7 0.00 0.00 0.00 99 1014.8
20260906082222 70 338 0.0 0.9 0.00 0.00 0.00 99 1014.7
20260906081719 70 89 0.0 0.9 0.00 0.00 0.00 99 1014.6
20260906081213 70 62 0.0 0.9 0.00 0.00 0.00 99 1014.4
20260906080710 71 117 0.0 1.7 0.00 0.00 0.00 98 1014.4
20260906080206 71 60 0.0 0.9 0.00 0.00 0.00 98 1014.6
20260906075706 71 73 0.0 0.9 0.00 0.00 0.00 98 1014.6
20260906075200 71 44 0.0 0.9 0.00 0.00 0.00 98 1015.0
20260906074655 71 52 0.0 0.9 0.00 0.00 0.00 98 1014.9
20260906074154 71 109 0.9 0.9 0.00 0.00 0.00 98 1015.0
20260906073650 71 269 0.0 1.7 0.00 0.00 0.00 98 1014.6
20260906073145 71 61 0.0 0.9 0.00 0.00 0.00 98 1014.4
20260906072640 71 358 0.9 0.9 0.00 0.00 0.00 98 1014.6
20260906072136 71 10 0.0 1.7 0.00 0.00 0.00 98 1014.2
20260906071632 71 121 2.6 2.6 0.00 0.00 0.00 98 1014.6
20260906071132 71 79 0.0 1.7 0.00 0.00 0.00 98 1014.4
20260906070629 71 131 1.7 2.6 0.00 0.00 0.00 98 1014.6
20260906070124 71 122 3.5 3.5 0.00 0.00 0.00 98 1014.8
20260906065624 71 110 0.9 1.7 0.00 0.00 0.00 98 1014.8
20260906065119 71 79 1.7 1.7 0.00 0.00 0.00 98 1014.7
20260906064615 72 109 1.7 2.6 0.00 0.00 0.00 98 1014.6
20260906064109 72 32 0.0 2.6 0.00 0.00 0.00 98 1014.6
20260906063605 72 103 1.7 3.5 0.00 0.00 0.00 98 1014.7
20260906063101 72 137 0.9 2.6 0.00 0.00 0.00 98 1014.4
20260906062556 72 159 0.0 2.6 0.00 0.00 0.00 98 1014.6
20260906062055 72 15 0.0 3.5 0.00 0.00 0.00 98 1014.6
20260906061551 72 85 1.7 2.6 0.00 0.00 0.00 98 1014.6
20260906061050 72 129 0.9 2.6 0.00 0.00 0.00 98 1014.4
20260906060547 72 37 0.0 2.6 0.00 0.00 0.00 97 1014.6
20260906060044 72 84 1.7 2.6 0.00 0.00 0.00 97 1014.2
20260906055540 72 89 0.0 2.6 0.00 0.00 0.00 97 1014.3
20260906055035 73 120 2.6 4.3 0.00 0.00 0.00 97 1014.2
20260906054535 73 118 0.0 2.6 0.00 0.00 0.00 97 1014.6
20260906054030 73 118 0.9 3.5 0.00 0.00 0.00 97 1014.3
20260906053527 73 55 1.7 5.2 0.00 0.00 0.00 97 1014.2
20260906053022 73 120 1.7 3.5 0.00 0.00 0.00 97 1014.4
20260906052518 73 79 1.7 3.5 0.00 0.00 0.00 97 1014.7
20260906052015 73 92 2.6 3.5 0.00 0.00 0.00 97 1014.4
20260906051510 73 43 0.9 4.3 0.00 0.00 0.00 97 1014.6
20260906051006 73 98 2.6 4.3 0.00 0.00 0.00 97 1014.6
20260906050500 73 136 0.0 2.6 0.00 0.00 0.00 96 1014.7
20260906045959 73 89 0.9 2.6 0.00 0.00 0.00 96 1014.6
20260906045458 73 87 1.7 2.6 0.00 0.00 0.00 96 1014.4
20260906044954 74 37 0.0 1.7 0.00 0.00 0.00 96 1014.3
20260906044449 74 159 0.0 1.7 0.00 0.00 0.00 96 1014.3
20260906043945 74 351 0.0 4.3 0.00 0.00 0.00 96 1014.3
20260906043441 74 97 1.7 2.6 0.00 0.00 0.00 96 1014.4
20260906042936 74 43 0.0 1.7 0.00 0.00 0.00 96 1014.6
20260906042435 74 3 0.9 1.7 0.00 0.00 0.00 95 1014.3
20260906041930 74 89 0.9 2.6 0.00 0.00 0.00 95 1014.6
20260906041427 74 68 0.9 2.6 0.00 0.00 0.00 95 1014.2
20260906040926 75 93 1.7 3.5 0.00 0.00 0.00 95 1014.3
20260906040421 75 51 0.9 3.5 0.00 0.00 0.00 95 1014.4
20260906035911 75 53 0.0 2.6 0.00 0.00 0.00 95 1014.2
20260906035406 75 97 2.6 2.6 0.00 0.00 0.00 95 1014.3
20260906034901 75 89 0.0 2.6 0.00 0.00 0.00 94 1014.2
20260906034356 75 98 1.7 3.5 0.00 0.00 0.00 94 1014.3
20260906033852 75 53 0.0 2.6 0.00 0.00 0.00 94 1014.2
20260906033352 75 77 2.6 3.5 0.00 0.00 0.00 94 1014.4
20260906032848 75 79 1.7 2.6 0.00 0.00 0.00 94 1014.2
20260906032344 75 76 0.9 2.6 0.00 0.00 0.00 94 1014.2
20260906031839 76 42 0.9 1.7 0.00 0.00 0.00 94 1014.0
20260906031334 76 94 1.7 2.6 0.00 0.00 0.00 93 1014.0
20260906030834 76 16 0.9 1.7 0.00 0.00 0.00 93 1014.0
20260906030329 76 41 0.9 3.5 0.00 0.00 0.00 93 1014.0
20260906025829 76 106 1.7 2.6 0.00 0.00 0.00 93 1013.8
20260906025322 76 39 1.7 3.5 0.00 0.00 0.00 93 1013.7
20260906024822 77 280 0.0 3.5 0.00 0.00 0.00 93 1013.8
20260906024316 77 39 2.6 4.3 0.00 0.00 0.00 93 1013.9
20260906023812 77 56 0.9 4.3 0.00 0.00 0.00 93 1013.7
20260906023307 77 99 1.7 3.5 0.00 0.00 0.00 94 1013.7
20260906022803 77 71 1.7 3.5 0.00 0.00 0.00 94 1013.7
20260906022257 77 97 1.7 3.5 0.00 0.00 0.00 94 1013.6
20260906021753 77 65 1.7 3.5 0.00 0.00 0.00 94 1013.5
20260906021252 78 38 2.6 4.3 0.00 0.00 0.00 94 1013.6
20260906020746 78 28 1.7 3.5 0.00 0.00 0.00 94 1013.4
20260906020241 78 28 1.7 4.3 0.00 0.00 0.00 93 1013.3
20260906015736 78 27 3.5 3.5 0.00 0.00 0.00 93 1013.2
20260906015234 78 58 0.9 6.1 0.00 0.00 0.00 93 1013.1
20260906014729 79 26 1.7 2.6 0.00 0.00 0.00 93 1013.1
20260906014224 79 101 3.5 3.5 0.00 0.00 0.00 93 1012.8
20260906013720 79 102 1.7 3.5 0.00 0.00 0.00 92 1012.8
20260906013220 80 44 2.6 5.2 0.00 0.00 0.00 92 1012.9
20260906012715 80 329 2.6 7.0 0.00 0.00 0.00 92 1012.7
20260906012210 80 86 3.5 5.2 0.00 0.00 0.00 92 1012.8
20260906011705 80 88 1.7 3.5 0.00 0.00 0.00 91 1012.7
20260906011200 81 77 1.7 4.3 0.00 0.00 0.00 91 1012.7
20260906010656 81 91 1.7 7.0 0.00 0.00 0.00 90 1012.6
20260906010152 82 44 1.7 5.2 0.00 0.00 0.00 89 1012.5
20260906005651 82 70 1.7 5.2 0.00 0.00 0.00 88 1012.4
20260906005151 82 16 0.0 4.3 0.00 0.00 0.00 87 1012.3
20260906004650 83 62 1.7 5.2 0.00 0.00 0.00 86 1012.4
20260906004145 83 53 1.7 3.5 0.00 0.00 0.00 86 1012.5
20260906003640 83 70 1.7 5.2 0.00 0.00 0.00 85 1012.5
20260906003136 84 26 1.7 3.5 0.00 0.00 0.00 84 1012.4
20260906002630 84 81 1.7 4.3 0.00 0.00 0.00 83 1012.6
20260906002125 84 97 2.6 2.6 0.00 0.00 0.00 83 1012.4
20260906001621 85 68 0.9 2.6 0.00 0.00 0.00 82 1012.1
20260906001120 85 7 0.0 2.6 0.00 0.00 0.00 81 1012.2
20260906000617 86 27 1.7 3.5 0.00 0.00 0.00 80 1012.3
20260906000112 86 94 0.9 4.3 0.00 0.00 0.00 79 1012.3
20260905235610 86 119 1.7 2.6 0.00 0.00 0.00 79 1012.1
20260905235106 86 52 1.7 3.5 0.00 0.00 0.00 80 1012.3
20260905234601 86 99 2.6 4.3 0.00 0.00 0.00 79 1012.3
20260905234056 87 114 0.0 3.5 0.00 0.00 0.00 79 1012.3
20260905233555 87 118 0.9 2.6 0.00 0.00 0.00 78 1012.4
20260905233050 86 81 1.7 4.3 0.00 0.00 0.00 78 1012.2
20260905232546 86 23 0.9 4.3 0.00 0.00 0.00 78 1012.4
20260905232041 86 75 1.7 3.5 0.00 0.00 0.00 78 1012.2
20260905231537 86 87 1.7 5.2 0.00 0.00 0.00 79 1012.1
20260905231032 86 115 1.7 5.2 0.00 0.00 0.00 78 1012.1
20260905230532 87 99 4.3 6.1 0.00 0.00 0.00 77 1011.9
20260905230030 88 10 1.7 5.2 0.00 0.00 0.00 75 1012.1
20260905225525 88 104 3.5 5.2 0.00 0.00 0.00 74 1012.3
20260905225020 88 40 1.7 3.5 0.00 0.00 0.00 74 1012.3
20260905224515 88 85 1.7 2.6 0.00 0.00 0.00 76 1012.5
20260905224014 88 14 1.7 3.5 0.00 0.00 0.00 77 1012.4
20260905223512 88 79 1.7 4.3 0.00 0.00 0.00 76 1012.2
20260905223008 87 96 1.7 5.2 0.00 0.00 0.00 76 1012.3
20260905222507 87 88 1.7 4.3 0.00 0.00 0.00 77 1012.2
20260905222002 87 126 1.7 5.2 0.00 0.00 0.00 77 1012.0
20260905221459 88 101 2.6 3.5 0.00 0.00 0.00 77 1012.2
20260905220955 88 62 3.5 4.3 0.00 0.00 0.00 76 1012.0
20260905220451 88 96 4.3 7.8 0.00 0.00 0.00 76 1012.1
20260905215950 89 106 3.5 3.5 0.00 0.00 0.00 76 1011.8
20260905215446 88 78 2.6 6.1 0.00 0.00 0.00 77 1011.5
20260905214942 88 195 1.7 7.0 0.00 0.00 0.00 76 1011.3
20260905214437 89 163 1.7 7.0 0.00 0.00 0.00 75 1011.3
20260905213937 89 69 1.7 9.6 0.00 0.00 0.00 75 1011.5
20260905213434 89 98 6.1 8.7 0.00 0.00 0.00 73 1011.4
20260905212929 89 89 1.7 5.2 0.00 0.00 0.00 72 1011.5
20260905212424 89 94 6.1 7.0 0.00 0.00 0.00 74 1011.5
20260905211922 89 99 2.6 6.1 0.00 0.00 0.00 75 1011.7
20260905211419 89 19 5.2 7.8 0.00 0.00 0.00 74 1011.7
20260905210915 89 70 3.5 9.6 0.00 0.00 0.00 74 1011.7
20260905210415 89 47 2.6 6.1 0.00 0.00 0.00 75 1011.9
20260905205914 88 72 4.3 7.0 0.00 0.00 0.00 76 1011.8
20260905205409 90 26 3.5 7.8 0.00 0.00 0.00 75 1011.6
20260905204908 90 98 4.3 5.2 0.00 0.00 0.00 74 1011.7
20260905204404 89 105 3.5 7.8 0.00 0.00 0.00 75 1012.1
20260905203903 89 130 1.7 8.7 0.00 0.00 0.00 75 1012.2
20260905203358 89 47 0.9 5.2 0.00 0.00 0.00 76 1012.2
20260905202854 89 84 1.7 6.1 0.00 0.00 0.00 77 1012.4
20260905202349 88 345 4.3 6.1 0.00 0.00 0.00 78 1012.2
20260905201844 87 45 1.7 5.2 0.00 0.00 0.00 78 1012.3
20260905201340 87 32 0.9 7.0 0.00 0.00 0.00 78 1012.5
20260905200833 87 54 1.7 7.0 0.00 0.00 0.00 78 1012.5
20260905200330 88 87 1.7 4.3 0.00 0.00 0.00 79 1012.4
20260905195828 89 58 4.3 4.3 0.00 0.00 0.00 77 1012.5
20260905195323 88 52 2.6 5.2 0.00 0.00 0.00 79 1012.6
20260905194819 88 92 8.7 8.7 0.00 0.00 0.00 78 1012.6
20260905194318 88 91 4.3 6.1 0.00 0.00 0.00 79 1012.7
20260905193818 87 21 3.5 7.8 0.00 0.00 0.00 78 1012.6
20260905193313 87 92 2.6 8.7 0.00 0.00 0.00 80 1012.8
20260905192809 87 89 4.3 8.7 0.00 0.00 0.00 79 1012.7
20260905192306 87 103 5.2 7.0 0.00 0.00 0.00 80 1012.8
20260905191803 87 103 1.7 5.2 0.00 0.00 0.00 81 1012.9
20260905191303 87 66 5.2 5.2 0.00 0.00 0.00 80 1013.1
20260905190801 87 84 2.6 8.7 0.00 0.00 0.00 80 1013.2
20260905190300 87 102 3.5 7.8 0.00 0.00 0.00 80 1013.2
20260905185759 86 10 3.5 6.1 0.00 0.00 0.00 80 1013.4
20260905185255 87 40 0.9 6.1 0.00 0.00 0.00 80 1013.4
20260905184754 87 78 2.6 5.2 0.00 0.00 0.00 80 1013.5
20260905184248 87 13 1.7 3.5 0.00 0.00 0.00 80 1013.8
20260905183746 87 43 2.6 4.3 0.00 0.00 0.00 81 1013.7
20260905183243 86 85 1.7 5.2 0.00 0.00 0.00 82 1013.7
20260905182736 86 93 5.2 5.2 0.00 0.00 0.00 81 1013.7
20260905182236 85 8 5.2 7.8 0.00 0.00 0.00 82 1013.6
20260905181731 85 29 6.1 7.0 0.00 0.00 0.00 81 1013.8
20260905181230 86 77 0.0 2.6 0.00 0.00 0.00 83 1013.9
20260905180725 85 99 2.6 4.3 0.00 0.00 0.00 83 1013.6
20260905180220 85 58 0.0 1.7 0.00 0.00 0.00 83 1013.8
20260905175715 84 52 4.3 4.3 0.00 0.00 0.00 84 1013.9
20260905175209 84 35 1.7 5.2 0.00 0.00 0.00 85 1014.0
20260905174704 84 26 2.6 3.5 0.00 0.00 0.00 84 1014.0
20260905174201 84 61 0.0 5.2 0.00 0.00 0.00 85 1014.0
20260905173657 84 28 5.2 5.2 0.00 0.00 0.00 83 1014.1
20260905173152 84 14 2.6 2.6 0.00 0.00 0.00 84 1014.1
20260905172652 84 8 2.6 7.0 0.00 0.00 0.00 84 1014.0
20260905172151 84 19 2.6 7.0 0.00 0.00 0.00 85 1013.9
20260905171647 84 77 3.5 6.1 0.00 0.00 0.00 85 1013.8
20260905171143 84 342 2.6 3.5 0.00 0.00 0.00 85 1013.7
20260905170640 84 22 2.6 5.2 0.00 0.00 0.00 85 1013.6
20260905170135 84 19 6.1 8.7 0.00 0.00 0.00 85 1013.8
20260905165629 84 8 3.5 4.3 0.00 0.00 0.00 85 1013.6
20260905165125 84 32 1.7 5.2 0.00 0.00 0.00 84 1013.6
20260905164625 84 16 2.6 6.1 0.00 0.00 0.00 84 1013.6